Location: ???????
(55.8860°N, 38.0932°E)
Time: 15:41:31
(UTC+00:00)

ATLAS 5 CENTAUR R/B - Pass Details

Date: 14 April 2024
Orbit: 420 x 1169 km, 63.3° (Epoch: 23 May)

Event Time Altitude Azimuth Distance (km) Brightness Sun altitude
Rises 01:00:36 0° 307° (NW) 2,802 4.8 -11.2°
Reaches altitude 10° 01:02:38 10° 307° (NW) 1,996 4.0 -11.0°
Maximum altitude 01:07:10 87° 222° (SW) 731 1.9 -10.5°
Drops below altitude 10° 01:12:53 10° 132° (SE) 2,486 4.8 -9.8°
Sets 01:15:39 0° 132° (SE) 3,549 5.6 -9.5°
